Weather History for Dillon, MT

Change the Weather History Date:

Thursday, October 4, 2012

  Actual Average Record
Temperature  
Mean Temperature 30 °F 48 °F  
Max Temperature 43 °F 62 °F 81 °F (1980)
Min Temperature 16 °F 34 °F 16 °F (2012)
Degree Days  
Heating Degree Days 35    
Month to date heating degree days 77  
Since 1 July heating degree days 257  
Cooling Degree Days 0    
Month to date cooling degree days 0  
Year to date cooling degree days 242  
Moisture  
Dew Point 20 °F    
Average Humidity 66    
Maximum Humidity 92    
Minimum Humidity 39    
Precipitation  
Precipitation 0.00 in 0.03 in 0.64 in (1941)
Month to date precipitation 0.00 0.12  
Year to date precipitation 5.17 9.29  
Snow  
Snow 0.00 in - - ()
Snow Depth 0.00 in    
Sea Level Pressure  
Sea Level Pressure 30.35 in    
Wind  
Wind Speed 5 mph (ENE)    
Max Wind Speed 18 mph    
Max Gust Speed 21 mph    
Visibility 10 miles    
Events      
T = Trace of Precipitation, MM = Missing Value Source: NWS Daily Summary

Daily Weather History Graph

Daily Weather History Graph

Search for Another Location

Airport:

Trip Planner

Search our weather history database for the weather conditions in past years. The results will help you decide how hot, cold, wet, or windy it might be!

Date:

Astronomy

Oct. 04, 2012 Rise Set
Actual Time 7:32 AM MDT 7:03 PM MDT
Civil Twilight 7:03 AM MDT 7:33 PM MDT
Nautical Twilight 6:29 AM MDT 8:07 PM MDT
Astronomical Twilight 5:54 AM MDT 8:41 PM MDT
Moon 9:29 PM MDT (10/4) 12:05 PM MDT (10/4)
Length of Visible Light 12h 29m
Length of Day
11h 31m
Waning Gibbous, 81% of the Moon is Illuminated
Oct 4
Waning Gibbous
Oct 8
Last Quarter
Oct 15
New
Oct 21
First Quarter
Oct 29
Full

Hourly Weather History & Observations

Time (MDT) Temp. Windchill Dew Point Humidity Pressure Visibility Wind Dir Wind Speed Gust Speed Precip Events Conditions
12:53 AM 27.0 °F 20.5 °F 21.0 °F 78% 30.41 in 10.0 mi ENE 5.8 mph - N/A   Clear
1:53 AM 25.0 °F 18.1 °F 21.0 °F 85% 30.40 in 10.0 mi East 5.8 mph - N/A   Clear
2:53 AM 21.0 °F 14.6 °F 18.0 °F 88% 30.40 in 10.0 mi East 4.6 mph - N/A   Clear
3:53 AM 23.0 °F 17.0 °F 18.0 °F 81% 30.38 in 10.0 mi ESE 4.6 mph - N/A   Clear
4:53 AM 23.0 °F - 19.0 °F 85% 30.37 in 10.0 mi Calm Calm - N/A   Clear
5:53 AM 18.0 °F 12.7 °F 15.1 °F 88% 30.39 in 10.0 mi SSE 3.5 mph - N/A   Clear
6:53 AM 17.1 °F 11.7 °F 12.9 °F 84% 30.42 in 10.0 mi South 3.5 mph - N/A   Clear
7:11 AM 19.4 °F 14.3 °F 15.8 °F 86% 30.30 in 10.0 mi SSE 3.5 mph - N/A   Mostly Cloudy
7:53 AM 24.1 °F - 19.0 °F 81% 30.40 in 10.0 mi Calm Calm - N/A   Overcast
8:53 AM 25.0 °F 20.7 °F 21.0 °F 85% 30.41 in 10.0 mi SSW 3.5 mph - N/A   Overcast
9:53 AM 28.0 °F 24.2 °F 21.0 °F 75% 30.40 in 10.0 mi SW 3.5 mph - N/A   Overcast
10:53 AM 30.9 °F - 21.9 °F 69% 30.38 in 10.0 mi Calm Calm - N/A   Overcast
11:53 AM 35.1 °F 30.1 °F 24.1 °F 64% 30.34 in 10.0 mi NNW 5.8 mph - N/A   Overcast
12:11 PM 35.6 °F 30.7 °F 21.2 °F 56% 30.27 in 10.0 mi NW 5.8 mph - N/A   Overcast
12:37 PM 35.6 °F 29.2 °F 21.2 °F 56% 30.27 in 10.0 mi NNE 8.1 mph - N/A   Overcast
12:53 PM 35.1 °F 31.0 °F 21.9 °F 59% 30.35 in 10.0 mi NE 4.6 mph - N/A   Overcast
1:53 PM 37.0 °F 33.3 °F 21.9 °F 54% 30.33 in 10.0 mi Variable 4.6 mph - N/A   Scattered Clouds
2:53 PM 39.9 °F 36.7 °F 21.9 °F 49% 30.31 in 10.0 mi NE 4.6 mph - N/A   Partly Cloudy
3:53 PM 39.9 °F 37.8 °F 21.9 °F 49% 30.29 in 10.0 mi Variable 3.5 mph - N/A   Clear
4:53 PM 42.1 °F 36.6 °F 21.0 °F 43% 30.28 in 10.0 mi NNE 9.2 mph - N/A   Scattered Clouds
5:53 PM 43.0 °F 36.4 °F 19.9 °F 40% 30.29 in 10.0 mi NE 12.7 mph - N/A   Clear
6:53 PM 37.9 °F 30.0 °F 19.9 °F 48% 30.33 in 10.0 mi NE 12.7 mph - N/A   Clear
7:53 PM 32.0 °F 24.2 °F 19.9 °F 61% 30.34 in 10.0 mi East 9.2 mph - N/A   Clear
8:53 PM 30.9 °F 23.5 °F 21.0 °F 67% 30.35 in 10.0 mi ENE 8.1 mph - N/A   Clear
9:53 PM 28.9 °F 22.8 °F 21.9 °F 75% 30.35 in 10.0 mi NNE 5.8 mph - N/A   Clear
10:53 PM 28.0 °F 20.0 °F 21.9 °F 78% 30.36 in 10.0 mi ENE 8.1 mph - N/A   Clear
11:53 PM 28.0 °F 20.8 °F 21.9 °F 78% 30.34 in 10.0 mi ESE 6.9 mph - N/A   Overcast